Temp
22 21 21 24 24 23 22 22 23 23 21 21 20 20 21 18 17 18 18 18 17 17 15 14 14 13 13 13 13 13 12 12 11 12 12 12 11 11 11 11 11 10 10 10
22 20 23 23 22 22 22 22 22 23 21 20 19 20 21 18 17 17 18 18 18 17 15 14 14 13 13 13 13 12 12 12 12 11 10 10 9 9 9 9 9 9 9 9
22 23 22 22 22 22 22 21 21 21 21 21 19 18 19 20 18 17 18 18 18 17 16 16 15 14 14 13 13 12 12 11 11 10 10 10 9 9 9 8 8 8 8 8
22 21 21 21 21 22 20 20 21 20 19 18 20 17 22 18 16 17 17 17 17 17 16 16 15 14 14 13 13 12 11 11 10 10 10 9 9 8 8 8 8 8 8 8
21 21 21 20 21 21 19 19 19 19 18 17 19 17 20 18 16 16 17 17 17 16 16 15 15 14 13 13 12 12 11 10 10 10 9 9 8 8 8 7 7 7 7 7
20 19 20 20 20 19 19 19 18 18 17 15 19 18 19 18 18 17 17 17 17 16 16 15 14 13 13 12 11 10 10 10 9 9 9 8 8 8 8 7 7 7 7 7
21 20 19 18 19 18 18 17 17 16 16 18 21 19 20 19 19 20 18 18 17 16 16 15 14 13 12 12 11 10 10 10 9 9 8 8 8 7 7 7 6 6 6 6
20 19 19 19 19 17 18 18 17 18 18 19 20 17 20 18 19 19 20 18 17 16 15 14 13 13 12 11 11 10 10 9 9 8 8 8 7 7 6 6 5 5 5 5
19 18 17 17 18 17 18 17 17 17 19 18 19 20 18 18 17 18 18 17 16 15 14 14 13 12 12 11 11 10 10 9 9 8 8 7 6 6 5 5 4 4 4 4
17 17 18 16 16 17 16 17 16 16 17 18 20 19 17 17 16 17 17 16 16 15 14 13 13 12 12 11 10 10 9 9 8 8 7 6 5 5 4 4 3 3 3 3
16 17 16 16 15 18 15 16 16 16 16 16 15 17 20 18 18 15 17 17 16 15 14 13 13 12 11 11 10 10 9 8 7 7 6 5 4 4 3 3 2 2 2 2
14 14 16 18 16 15 16 17 18 15 16 15 13 14 17 16 17 17 17 17 16 15 15 14 13 11 11 10 10 9 8 7 6 6 5 4 3 3 2 2 2 2 2 1
13 15 15 14 15 15 15 17 16 15 13 12 11 14 16 17 17 17 16 15 15 14 14 13 12 11 10 9 8 8 7 6 5 4 3 3 2 2 1 1 1 0 -0 -0
11 14 15 14 16 15 15 16 17 15 10 13 14 16 17 16 15 15 15 14 13 13 13 12 11 10 9 8 7 6 6 5 4 3 2 2 1 1 0 -0 -1 -1 -1 -1
12 13 14 15 15 15 15 15 15 14 14 13 14 14 15 14 13 14 15 14 13 12 12 11 10 9 8 7 6 5 4 3 2 2 1 1 -0 -0 -1 -2 -2 -1 -2 -2
12 12 13 12 16 14 13 13 13 14 14 14 14 14 14 15 15 15 14 13 13 12 11 10 9 7 6 6 5 4 3 2 2 1 0 -0 -1 -2 -2 -2 -2 -2 -2 -2
13 11 11 11 14 13 12 15 15 14 15 15 13 13 15 13 13 13 13 12 12 11 10 8 7 6 5 4 3 2 2 1 1 -0 -1 -1 -2 -2 -2 -2 -2 -2 -2 -2
12 12 11 8 11 10 15 14 14 15 14 13 13 13 14 13 13 12 12 11 11 9 8 7 5 5 4 3 2 2 1 1 -1 -1 -1 -2 -2 -2 -3 -3 -3 -3 -3 -3
11 11 9 8 9 12 14 12 12 11 12 13 11 12 13 12 12 12 10 9 9 7 6 5 4 3 3 2 1 1 0 -1 -1 -1 -2 -2 -3 -3 -3 -3 -3 -3 -3 -3
10 9 9 10 8 8 12 11 11 11 8 12 11 11 11 11 6 8 10 9 8 7 5 4 3 2 2 1 1 0 -0 -1 -1 -2 -2 -3 -3 -3 -3 -3 -3 -3 -3 -2
8 8 7 7 7 9 13 11 10 10 8 11 10 10 9 8 9 9 9 8 7 6 4 3 2 2 1 1 0 -0 -1 -1 -2 -3 -3 -3 -3 -3 -3 -3 -3 -3 -2 -2
9 8 8 8 8 8 11 10 11 11 12 11 9 9 9 9 8 8 8 7 6 4 3 2 2 1 1 0 -0 -0 -1 -2 -3 -3 -3 -3 -3 -3 -3 -3 -3 -2 -2 -2
9 11 9 10 9 13 12 12 12 10 9 9 9 9 8 8 8 7 7 6 5 4 3 2 1 0 0 -0 -1 -1 -2 -3 -3 -3 -3 -3 -3 -3 -3 -3 -2 -2 -2 -2
12 13 8 9 12 12 12 11 10 10 9 9 8 8 8 7 7 6 6 5 4 3 2 1 0 -0 -1 -1 -2 -2 -3 -3 -3 -3 -3 -3 -3 -3 -3 -2 -2 -1 -1 -1
11 10 10 10 11 11 10 9 9 8 8 8 7 7 7 6 6 6 5 4 3 2 1 0 -0 -1 -1 -2 -2 -3 -3 -3 -3 -3 -3 -3 -3 -3 -3 -2 -1 -1 -1 -0
9 10 8 8 9 8 8 8 8 8 8 7 6 6 6 6 6 5 4 3 2 1 1 -1 -1 -1 -1 -2 -2 -3 -3 -3 -4 -4 -3 -3 -3 -3 -2 -1 -0 0 -0 0
Height
1520 1524 1526 1516 1514 1516 1519 1521 1521 1514 1518 1522 1523 1521 1517 1522 1526 1529 1532 1534 1536 1539 1540 1543 1544 1545 1545 1544 1544 1544 1543 1541 1539 1536 1535 1534 1533 1531 1529 1527 1525 1523 1522 1519
1522 1526 1517 1516 1517 1519 1520 1522 1521 1513 1517 1522 1521 1517 1509 1513 1518 1524 1528 1531 1533 1537 1538 1541 1543 1544 1544 1543 1543 1542 1541 1539 1538 1536 1535 1533 1531 1528 1525 1522 1521 1519 1517 1515
1521 1517 1517 1518 1519 1522 1520 1523 1521 1524 1518 1516 1519 1517 1501 1505 1514 1520 1524 1528 1531 1533 1536 1538 1540 1540 1541 1542 1542 1540 1539 1539 1538 1536 1533 1530 1527 1524 1520 1517 1515 1513 1512 1510
1516 1518 1518 1520 1522 1517 1527 1522 1521 1524 1529 1536 1517 1536 1500 1504 1512 1517 1521 1524 1527 1530 1533 1536 1537 1539 1540 1540 1540 1538 1538 1537 1535 1533 1530 1527 1523 1518 1516 1513 1510 1507 1506 1504
1519 1518 1520 1522 1520 1519 1526 1525 1526 1527 1531 1532 1522 1534 1504 1504 1514 1514 1516 1520 1524 1527 1531 1533 1535 1536 1537 1537 1536 1535 1535 1533 1532 1529 1526 1522 1519 1515 1511 1508 1504 1501 1499 1498
1518 1520 1521 1521 1522 1523 1524 1526 1525 1526 1532 1545 1513 1520 1513 1509 1504 1506 1511 1516 1521 1525 1528 1531 1532 1533 1534 1534 1533 1533 1532 1530 1528 1525 1522 1518 1514 1510 1505 1502 1498 1495 1493 1491
1513 1517 1521 1524 1525 1524 1526 1530 1539 1544 1545 1533 1504 1516 1503 1497 1497 1499 1503 1510 1516 1521 1525 1527 1529 1531 1531 1531 1531 1530 1529 1526 1524 1521 1517 1514 1510 1505 1500 1497 1493 1490 1486 1484
1519 1528 1521 1523 1523 1528 1524 1526 1538 1542 1534 1525 1511 1524 1501 1497 1499 1501 1503 1508 1513 1518 1522 1525 1527 1528 1528 1528 1528 1527 1525 1522 1519 1516 1512 1508 1504 1499 1495 1491 1487 1483 1479 1476
1521 1526 1526 1525 1525 1527 1525 1533 1526 1531 1519 1526 1510 1499 1502 1503 1504 1504 1506 1509 1512 1516 1520 1523 1525 1526 1526 1525 1525 1523 1520 1517 1514 1510 1506 1502 1497 1493 1489 1484 1481 1476 1473 1469
1526 1531 1524 1528 1528 1527 1529 1529 1535 1534 1539 1533 1506 1505 1515 1510 1509 1508 1509 1512 1515 1517 1520 1521 1523 1523 1523 1522 1520 1518 1516 1512 1508 1504 1500 1494 1490 1486 1482 1477 1473 1469 1464 1461
1528 1527 1531 1528 1528 1522 1531 1530 1530 1530 1530 1536 1537 1519 1498 1501 1502 1505 1507 1509 1511 1513 1515 1517 1518 1518 1518 1517 1516 1513 1510 1506 1502 1497 1492 1487 1483 1479 1475 1471 1467 1462 1457 1453
1532 1533 1530 1520 1523 1524 1524 1523 1521 1534 1532 1529 1536 1527 1499 1502 1504 1507 1508 1509 1511 1512 1513 1513 1513 1513 1514 1513 1510 1508 1504 1501 1496 1491 1486 1481 1477 1473 1469 1464 1460 1456 1451 1446
1535 1531 1536 1532 1530 1527 1527 1521 1523 1525 1532 1539 1548 1529 1502 1506 1508 1508 1509 1510 1510 1510 1511 1510 1510 1511 1509 1508 1506 1503 1499 1494 1490 1485 1480 1476 1471 1466 1461 1457 1452 1447 1441 1436
1537 1532 1530 1537 1528 1526 1528 1521 1521 1527 1544 1527 1526 1512 1506 1507 1509 1509 1509 1508 1508 1509 1508 1508 1507 1507 1506 1504 1501 1497 1493 1488 1483 1479 1474 1469 1463 1459 1454 1449 1443 1438 1433 1428
1537 1536 1529 1525 1523 1522 1522 1523 1522 1525 1521 1530 1517 1518 1510 1509 1508 1508 1507 1507 1506 1506 1506 1505 1505 1503 1502 1499 1495 1491 1486 1482 1478 1473 1467 1462 1457 1452 1446 1440 1435 1429 1424 1418
1536 1536 1532 1532 1517 1524 1525 1519 1518 1519 1517 1515 1513 1512 1507 1507 1507 1506 1506 1506 1505 1504 1504 1503 1501 1500 1497 1493 1490 1485 1481 1477 1472 1467 1462 1456 1450 1445 1439 1432 1426 1421 1414 1407
1534 1537 1538 1536 1522 1523 1527 1510 1507 1510 1506 1507 1514 1508 1503 1505 1507 1506 1504 1504 1503 1502 1500 1499 1498 1495 1492 1489 1485 1480 1476 1471 1466 1461 1455 1450 1444 1437 1431 1424 1418 1411 1403 1397
1532 1535 1537 1544 1533 1541 1509 1505 1505 1505 1508 1507 1506 1504 1505 1506 1507 1506 1503 1500 1498 1498 1497 1496 1494 1490 1487 1483 1479 1475 1471 1466 1461 1456 1450 1444 1437 1430 1422 1415 1408 1400 1394 1386
1535 1535 1541 1546 1541 1520 1506 1511 1513 1515 1513 1507 1508 1507 1507 1507 1504 1504 1500 1499 1498 1498 1496 1493 1490 1486 1482 1478 1475 1470 1465 1461 1456 1450 1443 1437 1431 1422 1413 1405 1398 1390 1382 1375
1537 1538 1543 1537 1546 1544 1513 1514 1515 1515 1522 1511 1511 1510 1509 1507 1509 1503 1501 1498 1495 1493 1491 1489 1486 1483 1479 1475 1471 1466 1461 1456 1451 1445 1438 1431 1424 1415 1405 1397 1388 1381 1374 1366
1538 1540 1545 1542 1541 1527 1512 1515 1515 1521 1524 1512 1512 1511 1509 1507 1504 1499 1497 1495 1492 1490 1488 1486 1483 1480 1476 1472 1467 1462 1457 1452 1446 1439 1432 1425 1416 1407 1399 1389 1380 1372 1364 1356
1528 1534 1535 1534 1535 1533 1515 1517 1520 1514 1509 1509 1508 1507 1505 1502 1499 1496 1494 1491 1489 1487 1484 1482 1479 1476 1473 1469 1465 1459 1453 1447 1441 1434 1426 1417 1409 1400 1391 1381 1371 1363 1355 1347
1526 1517 1524 1521 1521 1511 1513 1513 1512 1512 1510 1508 1506 1503 1501 1496 1493 1491 1488 1486 1483 1482 1480 1478 1475 1472 1469 1466 1461 1454 1449 1444 1436 1429 1421 1411 1402 1394 1385 1375 1364 1355 1347 1340
1512 1511 1517 1516 1510 1509 1510 1509 1509 1508 1506 1503 1501 1498 1495 1490 1487 1485 1484 1482 1482 1480 1477 1475 1472 1468 1465 1462 1457 1452 1446 1440 1432 1424 1415 1406 1396 1387 1379 1369 1360 1351 1342 1334
1516 1512 1510 1509 1507 1506 1508 1508 1506 1503 1501 1498 1495 1492 1489 1486 1482 1481 1480 1479 1478 1476 1474 1472 1469 1466 1461 1457 1452 1448 1443 1437 1429 1421 1411 1401 1392 1383 1373 1365 1356 1349 1342 1334
1513 1509 1510 1509 1507 1507 1507 1506 1505 1501 1497 1494 1491 1487 1485 1482 1478 1477 1477 1476 1475 1472 1471 1468 1466 1462 1458 1453 1450 1446 1441 1434 1426 1416 1407 1398 1389 1380 1371 1362 1354 1350 1343 1337
Wind_Speed
5 2 6 5 4 5 7 8 8 8 6 2 7 11 8 20 16 14 15 15 15 15 14 8 6 4 2 1 2 4 8 12 14 18 19 19 21 20 23 24 21 20 21 24
3 6 4 3 4 4 7 9 9 2 7 2 7 12 9 19 17 19 18 16 16 15 12 11 9 6 4 5 5 7 9 13 16 18 17 19 19 22 27 25 22 20 24 26
7 4 3 2 1 5 7 7 7 7 2 8 7 11 14 10 18 17 17 17 16 16 12 14 11 9 7 6 8 13 16 12 13 15 19 22 26 28 30 28 28 30 27 25
5 5 2 2 6 7 7 8 6 6 5 3 3 5 4 11 9 11 17 18 18 15 14 10 8 6 8 9 10 14 12 14 14 17 21 26 27 30 30 32 32 32 28 29
1 1 2 4 2 6 4 4 4 5 7 8 8 3 4 11 7 10 17 20 18 15 14 14 12 10 9 11 13 15 16 13 17 21 25 27 28 30 34 33 33 35 33 31
7 3 2 5 3 3 3 5 8 4 4 4 10 7 4 6 11 9 18 22 21 18 16 14 10 9 10 9 12 13 15 17 19 23 26 27 30 31 33 33 33 34 32 31
8 8 5 2 3 4 4 4 2 3 3 3 6 4 4 7 6 3 16 23 21 18 16 13 11 10 11 12 14 15 16 20 22 28 28 28 29 31 32 33 33 33 34 33
4 4 5 4 2 4 6 2 3 4 2 2 4 5 4 7 9 3 6 19 19 16 14 14 13 13 14 15 14 17 19 23 27 26 29 28 29 30 32 33 34 37 37 36
6 4 4 4 4 2 3 3 3 4 8 4 5 3 4 4 5 5 7 14 15 14 14 13 13 13 14 16 17 19 22 25 26 28 28 31 32 33 35 34 34 34 34 34
2 2 1 4 2 4 3 5 2 2 3 4 4 6 3 4 5 4 6 8 11 12 12 12 12 13 15 16 19 23 22 26 29 31 32 33 34 34 35 35 36 37 38 38
3 3 3 1 6 2 3 3 4 1 2 3 3 2 2 7 3 9 10 13 16 16 18 18 16 15 15 19 21 22 25 29 31 32 32 34 35 36 36 33 33 35 37 38
4 3 4 3 4 5 3 4 3 2 4 3 2 6 8 8 9 9 11 9 7 1 6 16 16 14 17 19 22 24 28 30 30 32 35 35 35 33 32 35 35 32 32 32
5 3 4 2 2 2 3 4 4 5 2 5 1 5 6 9 5 4 3 4 7 10 11 12 12 14 17 20 23 27 28 29 31 32 34 33 32 33 34 35 36 38 40 46
3 3 4 3 3 2 4 3 4 4 2 4 6 14 9 10 6 11 10 8 9 5 7 10 13 16 17 21 26 27 29 31 32 33 30 30 34 37 34 36 42 45 41 41
2 3 5 8 9 8 8 10 10 12 12 7 12 12 14 6 6 9 8 8 6 10 11 11 12 16 21 24 26 28 30 33 30 30 31 38 33 36 44 38 39 41 39 44
3 2 4 4 6 3 7 13 12 12 12 13 14 14 6 5 12 12 11 14 16 14 12 11 13 19 22 23 27 29 31 29 29 30 32 32 37 41 41 41 39 42 43 45
4 2 3 4 2 8 8 4 2 3 4 4 6 7 5 6 9 13 16 20 18 12 8 11 17 19 22 25 28 29 29 27 31 31 35 40 37 40 42 42 42 44 46 46
2 2 2 3 6 3 2 4 4 1 4 7 7 6 6 7 13 16 22 19 8 8 11 16 18 21 25 27 27 26 27 34 31 32 39 37 38 42 44 45 44 46 45 46
3 3 2 1 3 8 9 4 5 5 4 7 8 9 13 18 21 15 9 8 7 10 14 16 20 23 26 24 25 26 32 31 33 34 39 39 39 48 46 47 45 44 46 46
0 4 2 2 2 4 5 4 1 1 2 15 18 16 18 17 6 5 22 15 11 14 17 20 21 24 23 24 24 29 30 30 32 39 40 40 47 46 45 47 48 43 42 45
3 3 5 5 4 5 4 8 1 2 4 16 16 14 16 7 13 26 26 21 18 18 18 19 22 23 23 25 27 27 29 31 36 38 41 45 43 44 45 47 46 46 46 46
6 5 4 3 3 5 7 3 1 8 21 16 14 16 22 24 28 27 25 19 17 16 18 19 21 23 24 24 26 28 32 34 36 41 45 44 45 44 46 46 46 46 45 42
2 5 1 2 4 5 5 9 13 13 17 19 23 25 26 28 26 24 21 18 15 15 17 19 21 22 23 23 25 31 31 33 37 42 44 44 46 45 42 43 43 44 40 38
5 10 3 3 2 11 18 18 24 23 24 26 26 27 27 28 26 20 19 14 14 16 17 19 20 22 24 26 28 31 30 34 38 45 42 44 45 42 42 38 37 38 36 37
4 11 3 7 12 12 12 21 27 31 31 29 28 27 27 25 22 16 14 14 14 15 18 18 20 21 25 27 30 28 30 34 39 40 42 45 43 42 40 36 33 30 31 34
8 5 4 4 13 11 16 22 23 25 26 25 27 30 25 20 20 15 13 13 13 16 19 16 19 24 26 27 28 28 32 35 36 40 43 44 41 40 36 32 29 20 22 22
Wind_Direction
178 263 222 253 243 6 330 305 297 297 112 179 247 264 251 181 195 216 213 206 194 199 183 194 193 175 166 13 311 2 336 335 342 337 336 335 337 331 322 326 322 317 306 309
183 230 36 41 25 339 300 284 282 126 131 168 270 275 239 172 185 200 212 214 203 199 181 200 213 216 224 244 294 298 311 326 334 327 329 323 322 308 311 320 312 302 297 297
251 45 94 327 248 276 259 262 298 337 19 229 251 276 250 183 173 196 217 213 215 203 200 205 214 230 244 285 277 289 305 313 310 319 310 311 307 312 315 317 309 306 308 299
276 66 335 286 279 286 289 17 10 322 320 278 139 289 266 148 158 188 205 218 215 203 206 218 206 236 258 267 279 287 291 286 300 299 301 308 312 311 311 306 308 309 305 298
51 129 196 263 329 24 57 359 323 311 290 301 255 220 312 129 192 202 203 210 213 209 212 225 233 236 250 268 272 265 277 294 292 296 311 310 307 304 305 306 304 303 304 302
270 72 325 12 74 2 44 279 243 247 247 254 231 172 196 178 206 192 195 204 208 210 213 217 225 247 261 267 269 277 281 294 297 308 307 305 306 307 307 308 307 305 304 301
199 202 113 275 254 165 219 276 274 228 191 258 69 189 294 114 86 22 177 190 198 199 205 215 224 244 243 261 278 286 295 296 301 304 307 307 306 304 304 305 304 303 302 301
269 183 173 123 300 357 200 329 307 304 8 359 75 234 207 89 87 93 142 174 181 189 204 213 227 241 258 270 278 289 295 298 303 307 305 306 305 302 299 298 300 301 303 301
348 105 86 19 14 349 115 207 3 298 264 267 234 178 93 110 91 116 131 153 171 192 203 216 236 253 266 273 284 291 298 304 305 306 305 302 299 298 302 303 303 304 302 301
41 277 318 114 256 207 275 338 253 223 270 282 313 344 89 160 149 178 163 178 189 199 217 224 244 260 270 278 287 298 302 304 303 301 301 300 301 302 302 301 300 298 299 300
320 256 137 125 199 138 163 226 216 293 261 274 319 247 111 125 116 176 187 207 209 214 218 230 239 254 272 285 295 298 301 303 302 304 304 303 303 301 302 304 304 304 304 304
56 332 285 64 60 28 328 318 334 195 309 298 226 268 59 82 88 40 31 22 45 191 250 234 231 269 287 289 299 300 304 305 306 302 302 301 303 305 304 305 308 306 302 299
3 230 300 128 136 152 258 230 233 312 92 222 155 268 125 102 104 174 205 241 259 270 274 268 276 279 290 298 299 304 305 303 301 302 304 308 307 306 306 304 297 299 300 298
348 289 281 278 352 191 277 249 225 238 237 269 234 286 332 333 32 50 31 14 4 339 291 271 286 297 292 299 303 305 302 301 302 306 309 306 301 305 307 303 301 304 308 303
273 278 328 315 307 286 272 272 267 253 245 255 286 294 306 6 31 352 342 334 315 292 286 289 294 300 304 304 304 303 302 305 310 310 305 306 309 302 306 315 306 308 302 303
116 289 359 287 255 349 278 265 266 270 273 270 280 283 130 4 329 322 316 336 321 303 304 299 303 304 303 303 302 302 306 310 312 310 311 308 303 311 313 313 309 305 302 304
191 231 1 264 339 331 282 288 5 346 297 283 269 279 357 358 329 325 321 315 306 305 294 302 306 302 301 302 304 308 312 309 306 309 306 313 317 313 314 310 306 307 306 306
266 202 228 267 308 240 73 43 360 277 280 278 274 278 9 355 342 331 308 301 276 285 302 305 302 302 305 307 312 314 306 308 316 310 314 318 314 314 310 313 309 311 310 309
246 312 286 224 243 305 297 41 23 31 301 1 40 19 350 338 329 317 316 318 300 311 304 299 299 302 308 315 313 309 312 317 318 318 318 317 313 317 315 314 316 316 312 308
284 293 284 237 224 248 39 128 35 309 273 17 6 351 338 336 323 293 324 321 293 294 294 303 307 313 317 316 314 315 318 319 320 318 319 318 318 320 318 318 319 317 313 309
180 187 209 230 248 257 302 101 67 327 281 341 338 333 332 314 294 297 300 298 297 302 308 310 314 314 314 314 318 317 318 319 317 323 322 322 323 323 322 322 319 316 314 310
170 174 197 197 225 268 118 101 271 288 312 321 350 332 319 309 305 306 305 305 303 306 306 311 313 312 316 321 320 316 313 319 323 324 324 325 328 325 321 321 322 320 316 316
237 215 223 196 207 305 237 245 338 3 349 330 316 309 305 305 304 305 303 299 295 301 306 310 310 316 318 320 317 311 321 325 328 328 328 327 328 325 325 325 327 323 327 322
225 218 205 13 267 320 319 345 343 334 325 318 312 309 306 303 301 295 298 297 303 304 307 312 314 317 319 317 315 318 326 330 327 330 329 331 328 327 330 335 334 335 337 330
304 323 260 264 297 304 349 340 328 321 317 316 314 310 303 302 300 293 297 294 297 301 308 309 317 316 316 325 326 336 330 333 329 332 333 334 331 334 338 338 340 352 352 341
227 256 250 281 9 348 329 318 319 324 318 314 313 310 313 303 298 284 283 286 294 298 310 320 314 318 326 332 332 327 329 334 336 336 337 336 336 341 342 345 349 2 358 15